Location: Unspecified
(52.4292°N, 19.3359°E)
Time: 01:03:23
(UTC+02:00)

Vanguard 1 Rocket - Pass Details

Date: 24 May 2024
Orbit: 649 x 4221 km, 34.3° (Epoch: 13 June)

Event Time Altitude Azimuth Distance (km) Brightness Sun altitude
Rises 08:58:49 0° 221° (SW) 8,351 12.1 37.4°
Reaches altitude 10° 09:06:06 10° 213° (SSW) 7,038 11.9 38.5°
Maximum altitude 09:23:01 30° 163° (SSE) 4,328 11.7 40.9°
Drops below altitude 10° 09:33:56 10° 110° (ESE) 4,527 12.1 42.5°
Sets 09:37:19 0° 99° (E) 5,090 12.0 43.0°
